#timestamp,LO_Frequency,Hit,StdDev 
1593277215.1,286046999.3,N
1593277235.9,286046998.3,N
1593277255.7,286046996.5,N
1593277275.5,286046997.3,N
1593277295.4,286046997.2,N
1593277315.2,286046997.9,N
1593277335.0,286046996.5,N
1593277336.0,286046996.5,N
1593277355.8,286046997.0,N
1593277375.6,286046999.2,N
1593277395.5,286046997.2,N
1593277415.3,286046995.2,N
1593277435.1,286046997.6,N
1593277455.9,286046999.3,N
1593277475.7,286046997.1,N
1593277495.5,286046999.1,N
1593277515.4,286046996.9,N
1593277535.2,286046999.6,N
1593277555.1,286046999.6,N
1593277556.0,286046999.6,N
1593277575.8,286046999.5,N
1593277595.6,286046998.8,N
1593277615.5,286047001.2,N
1593277635.3,286047002.5,N
1593277655.2,286047002.5,N
1593277675.9,286046999.8,N
1593277695.7,286047000.7,N
1593277715.6,286047002.3,N
1593277735.4,286046998.4,N
1593277755.2,286047002.7,N
1593277775.1,286047002.2,N
1593277776.0,286047002.2,N
1593277795.8,286047002.5,N
1593277815.7,286047000.0,N
1593277835.5,286047000.6,N
1593277855.3,286046998.4,N
1593277875.2,286046999.2,N
1593277895.9,286046997.8,N
1593277915.7,286046998.3,N
1593277935.6,286047000.4,N
1593277955.4,286046998.3,N
1593277975.2,286047000.0,N
1593277995.1,286047000.8,N
1593277996.0,286047000.8,N
1593278015.8,286047000.5,N
1593278035.7,286047000.5,N
1593278055.5,286047000.5,N
1593278075.3,286046998.6,N
1593278095.2,286047000.7,N
1593278115.0,286047002.2,N
1593278115.9,286047002.2,N
1593278135.8,286047000.9,N
1593278155.6,286047002.8,N
1593278175.4,286047000.7,N
1593278195.3,286046999.0,N
1593278215.1,286047002.8,N
1593278235.8,286047000.0,N
1593278255.7,286047000.4,N
1593278275.5,286046999.8,N
1593278295.3,286046999.9,N
1593278315.2,286047000.6,N
1593278335.0,286047000.3,N
1593278335.9,286047000.3,N
1593278355.8,286047000.8,N
1593278375.6,286047002.4,N
1593278395.4,286047002.3,N
1593278415.3,286047004.3,Y
1593278435.1,286047004.2,P
1593278455.9,286047004.0,N
1593278475.7,286047004.1,N
1593278495.5,286047003.0,N
1593278515.4,286047006.2,Y
1593278535.2,286047005.1,P
1593278555.0,286047005.8,P
1593278555.9,286047005.8,P
1593278575.8,286047005.5,Y
1593278595.6,286047000.4,P
1593278615.5,286047002.6,N
1593278635.3,286047002.1,N
1593278655.1,286047000.3,N
1593278675.9,286047002.4,N
1593278695.7,286047002.8,N
1593278715.6,286047002.8,N
1593278735.4,286047001.0,N
1593278755.2,286047000.5,N
1593278775.1,286047000.3,N
1593278776.0,286047000.3,N
1593278795.8,286047000.1,N
1593278815.7,286047001.7,N
1593278835.5,286047003.9,N
1593278855.3,286047005.3,Y
1593278875.2,286047003.6,P
1593278895.0,286047006.1,P
1593278895.9,286047006.1,P
1593278915.7,286047010.5,Y
1593278935.6,286047007.0,P
1593278955.4,286047005.2,P
1593278975.3,286047005.6,P
1593278995.1,286047008.7,Y
1593278996.0,286047008.7,P
1593279015.8,286047004.4,N
1593279035.7,286047002.9,N
1593279055.5,286047005.2,N
1593279075.3,286047005.2,N
1593279095.2,286047004.2,N
1593279115.0,286047004.4,N
1593279115.9,286047004.4,N
1593279135.8,286047002.1,N
1593279155.6,286047001.5,N
1593279175.4,286047002.2,N
1593279195.3,286047003.1,N
1593279215.1,286047004.9,N
1593279235.9,286047004.5,N
1593279255.7,286047004.5,N
1593279275.5,286047006.8,Y
1593279295.4,286047004.0,P
1593279315.2,286047003.2,P
1593279335.0,286047002.6,P
1593279336.0,286047002.6,Y
1593279355.8,286046999.4,P
1593279375.6,286046999.6,N
1593279395.5,286047000.7,N
1593279415.3,286047002.8,N
1593279435.1,286047000.3,N
1593279455.9,286046998.5,N
1593279475.7,286046999.6,N
1593279495.6,286046999.2,N
1593279515.4,286046999.5,N
1593279535.2,286046997.4,N
1593279555.1,286046996.2,N
1593279556.0,286046996.2,N
1593279575.8,286046993.8,N
1593279595.7,286046996.1,N
1593279615.5,286046995.8,N
1593279635.3,286046995.8,N
1593279655.2,286046993.5,N
1593279675.0,286046993.9,N
1593279675.9,286046993.9,N
1593279695.7,286046995.3,N
1593279715.6,286046999.1,N
1593279735.4,286047003.7,N
1593279755.3,286047003.7,N
1593279775.1,286047006.1,N
1593279776.0,286047006.1,N
1593279795.8,286047004.5,N
1593279815.7,286047004.5,N
1593279835.5,286047008.4,N
1593279855.3,286047009.9,N
1593279875.2,286047009.4,N
1593279895.0,286047009.3,N
1593279895.9,286047009.3,N
1593279915.8,286047011.4,N
1593279935.6,286047009.9,N
1593279955.4,286047006.1,N
1593279975.3,286047005.1,N
1593279995.1,286047005.8,N
1593280015.9,286047004.8,N
1593280035.7,286047006.4,N
1593280055.5,286047005.3,N
1593280075.4,286047007.6,N
1593280095.2,286047005.7,N
1593280115.0,286047006.5,N
1593280115.9,286047006.5,N
1593280135.8,286047008.6,N
1593280155.6,286047008.0,N
1593280175.5,286047009.8,N
1593280195.3,286047011.5,N
1593280215.1,286047017.0,Y
1593280235.9,286047011.7,P
1593280255.7,286047006.1,N
1593280275.6,286047006.8,N
1593280295.4,286047006.4,N
1593280315.2,286047008.1,Y
1593280335.1,286047001.3,P
1593280336.0,286047001.3,N
1593280355.8,286047006.9,N
1593280375.6,286047007.8,N
1593280395.5,286047011.9,Y
1593280415.3,286047008.1,P
1593280435.2,286047011.5,P
1593280455.9,286047011.2,P
1593280475.7,286047008.0,N
1593280495.6,286047007.3,Y
1593280515.4,286046993.3,P
1593280535.3,286046990.3,N
1593280555.1,286046993.0,N
1593280556.0,286046993.0,N
1593280575.8,286046994.5,N
1593280595.7,286046995.9,N
1593280615.5,286046994.0,N
1593280635.3,286046994.2,N
1593280655.2,286046994.4,N
1593280675.0,286046996.3,N
1593280675.9,286046996.3,N
1593280695.8,286046998.8,N
1593280715.6,286046999.1,N
1593280735.4,286046997.6,N
1593280755.3,286046997.8,N
1593280775.1,286046993.5,N
1593280795.8,286046994.5,N
